Year,Month,Day,Hour,Minute,Value (Times are PST for temperature in C)
2018,03,23,00,00,3.70
2018,03,23,00,01,3.70
2018,03,23,00,02,3.70
2018,03,23,00,03,3.70
2018,03,23,00,04,3.70
2018,03,23,00,05,3.70
2018,03,23,00,06,3.70
2018,03,23,00,07,3.70
2018,03,23,00,08,3.70
2018,03,23,00,09,3.60
2018,03,23,00,10,3.60
2018,03,23,00,11,3.60
2018,03,23,00,12,3.60
2018,03,23,00,13,3.60
2018,03,23,00,14,3.60
2018,03,23,00,15,3.60
2018,03,23,00,16,3.60
2018,03,23,00,17,3.60
2018,03,23,00,18,3.60
2018,03,23,00,19,3.60
2018,03,23,00,20,3.60
2018,03,23,00,21,3.60
2018,03,23,00,22,3.60
2018,03,23,00,23,3.50
2018,03,23,00,24,3.50
2018,03,23,00,25,3.50
2018,03,23,00,26,3.50
2018,03,23,00,27,3.50
2018,03,23,00,28,3.40
2018,03,23,00,29,3.40
2018,03,23,00,30,3.40
2018,03,23,00,31,3.40
2018,03,23,00,32,3.40
2018,03,23,00,33,3.40
2018,03,23,00,34,3.40
2018,03,23,00,35,3.40
2018,03,23,00,36,3.40
2018,03,23,00,37,3.40
2018,03,23,00,38,3.50
2018,03,23,00,39,3.50
2018,03,23,00,40,3.50
2018,03,23,00,41,3.50
2018,03,23,00,42,3.50
2018,03,23,00,43,3.50
2018,03,23,00,44,3.60
2018,03,23,00,45,3.60
2018,03,23,00,46,3.50
2018,03,23,00,47,3.50
2018,03,23,00,48,3.50
2018,03,23,00,49,3.50
2018,03,23,00,50,3.50
2018,03,23,00,51,3.50
2018,03,23,00,52,3.50
2018,03,23,00,53,3.40
2018,03,23,00,54,3.40
2018,03,23,00,55,3.40
2018,03,23,00,56,3.40
2018,03,23,00,57,3.40
2018,03,23,00,58,3.30
2018,03,23,00,59,3.30
2018,03,23,01,00,3.30
2018,03,23,01,01,3.30
2018,03,23,01,02,3.30
2018,03,23,01,03,3.30
2018,03,23,01,04,3.30
2018,03,23,01,05,3.20
2018,03,23,01,06,3.20
2018,03,23,01,07,3.20
2018,03,23,01,08,3.20
2018,03,23,01,09,3.20
2018,03,23,01,10,3.20
2018,03,23,01,11,3.20
2018,03,23,01,12,3.20
2018,03,23,01,13,3.20
2018,03,23,01,14,3.20
2018,03,23,01,15,3.20
2018,03,23,01,16,3.20
2018,03,23,01,17,3.20
2018,03,23,01,18,3.20
2018,03,23,01,19,3.20
2018,03,23,01,20,3.20
2018,03,23,01,21,3.20
2018,03,23,01,22,3.30
2018,03,23,01,23,3.30
2018,03,23,01,24,3.30
2018,03,23,01,25,3.30
2018,03,23,01,26,3.30
2018,03,23,01,27,3.30
2018,03,23,01,28,3.30
2018,03,23,01,29,3.30
2018,03,23,01,30,3.30
2018,03,23,01,31,3.40
2018,03,23,01,32,3.40
2018,03,23,01,33,3.40
2018,03,23,01,34,3.40
2018,03,23,01,35,3.40
2018,03,23,01,36,3.40
2018,03,23,01,37,3.50
2018,03,23,01,38,3.50
2018,03,23,01,39,3.50
2018,03,23,01,40,3.50
2018,03,23,01,41,3.60
2018,03,23,01,42,3.60
2018,03,23,01,43,3.60
2018,03,23,01,44,3.60
2018,03,23,01,45,3.60
2018,03,23,01,46,3.60
2018,03,23,01,47,3.60
2018,03,23,01,48,3.60
2018,03,23,01,49,3.60
2018,03,23,01,50,3.60
2018,03,23,01,51,3.60
2018,03,23,01,52,3.60
2018,03,23,01,53,3.60
2018,03,23,01,54,3.50
2018,03,23,01,55,3.50
2018,03,23,01,56,3.50
2018,03,23,01,57,3.40
2018,03,23,01,58,3.40
2018,03,23,01,59,3.40
2018,03,23,02,00,3.40
2018,03,23,02,01,3.40
2018,03,23,02,02,3.40
2018,03,23,02,03,3.30
2018,03,23,02,04,3.30
2018,03,23,02,05,3.30
2018,03,23,02,06,3.30
2018,03,23,02,07,3.30
2018,03,23,02,08,3.20
2018,03,23,02,09,3.20
2018,03,23,02,10,3.20
2018,03,23,02,11,3.20
2018,03,23,02,12,3.20
2018,03,23,02,13,3.20
2018,03,23,02,14,3.20
2018,03,23,02,15,3.20
2018,03,23,02,16,3.20
2018,03,23,02,17,3.20
2018,03,23,02,18,3.20
2018,03,23,02,19,3.20
2018,03,23,02,20,3.20
2018,03,23,02,21,3.20
2018,03,23,02,22,3.20
2018,03,23,02,23,3.20
2018,03,23,02,24,3.20
2018,03,23,02,25,3.20
2018,03,23,02,26,3.20
2018,03,23,02,27,3.20
2018,03,23,02,28,3.20
2018,03,23,02,29,3.20
2018,03,23,02,30,3.20
2018,03,23,02,31,3.20
2018,03,23,02,32,3.20
2018,03,23,02,33,3.20
2018,03,23,02,34,3.20
2018,03,23,02,35,3.20
2018,03,23,02,36,3.20
2018,03,23,02,37,3.20
2018,03,23,02,38,3.20
2018,03,23,02,39,3.20
2018,03,23,02,40,3.20
2018,03,23,02,41,3.20
2018,03,23,02,42,3.30
2018,03,23,02,43,3.30
2018,03,23,02,44,3.30
2018,03,23,02,45,3.30
2018,03,23,02,46,3.30
2018,03,23,02,47,3.30
2018,03,23,02,48,3.30
2018,03,23,02,49,3.30
2018,03,23,02,50,3.20
2018,03,23,02,51,3.20
2018,03,23,02,52,3.20
2018,03,23,02,53,3.20
2018,03,23,02,54,3.20
2018,03,23,02,55,3.20
2018,03,23,02,56,3.20
2018,03,23,02,57,3.20
2018,03,23,02,58,3.20
2018,03,23,02,59,3.20
2018,03,23,03,00,3.20
2018,03,23,03,01,3.20
2018,03,23,03,02,3.20
2018,03,23,03,03,3.20
2018,03,23,03,04,3.20
2018,03,23,03,05,3.20
2018,03,23,03,06,3.20
2018,03,23,03,07,3.20
2018,03,23,03,08,3.20
2018,03,23,03,09,3.20
2018,03,23,03,10,3.20
2018,03,23,03,11,3.20
2018,03,23,03,12,3.20
2018,03,23,03,13,3.20
2018,03,23,03,14,3.20
2018,03,23,03,15,3.20
2018,03,23,03,16,3.20
2018,03,23,03,17,3.20
2018,03,23,03,18,3.20
2018,03,23,03,19,3.20
2018,03,23,03,20,3.20
2018,03,23,03,21,3.20
2018,03,23,03,22,3.20
2018,03,23,03,23,3.20
2018,03,23,03,24,3.20
2018,03,23,03,25,3.20
2018,03,23,03,26,3.20
2018,03,23,03,27,3.20
2018,03,23,03,28,3.20
2018,03,23,03,29,3.20
2018,03,23,03,30,3.20
2018,03,23,03,31,3.20
2018,03,23,03,32,3.20
2018,03,23,03,33,3.20
2018,03,23,03,34,3.20
2018,03,23,03,35,3.20
2018,03,23,03,36,3.20
2018,03,23,03,37,3.20
2018,03,23,03,38,3.20
2018,03,23,03,39,3.20
2018,03,23,03,40,3.20
2018,03,23,03,41,3.20
2018,03,23,03,42,3.20
2018,03,23,03,43,3.20
2018,03,23,03,44,3.20
2018,03,23,03,45,3.20
2018,03,23,03,46,3.20
2018,03,23,03,47,3.20
2018,03,23,03,48,3.30
2018,03,23,03,49,3.30
2018,03,23,03,50,3.30
2018,03,23,03,51,3.30
2018,03,23,03,52,3.30
2018,03,23,03,53,3.30
2018,03,23,03,54,3.30
2018,03,23,03,55,3.40
2018,03,23,03,56,3.40
2018,03,23,03,57,3.40
2018,03,23,03,58,3.40
2018,03,23,03,59,3.40
2018,03,23,04,00,3.40
2018,03,23,04,01,3.40
2018,03,23,04,02,3.40
2018,03,23,04,03,3.40
2018,03,23,04,04,3.40
2018,03,23,04,05,3.40
2018,03,23,04,06,3.40
2018,03,23,04,07,3.40
2018,03,23,04,08,3.40
2018,03,23,04,09,3.40
2018,03,23,04,10,3.40
2018,03,23,04,11,3.30
2018,03,23,04,12,3.30
2018,03,23,04,13,3.30
2018,03,23,04,14,3.30
2018,03,23,04,15,3.30
2018,03,23,04,16,3.30
2018,03,23,04,17,3.30
2018,03,23,04,18,3.20
2018,03,23,04,19,3.20
2018,03,23,04,20,3.20
2018,03,23,04,21,3.20
2018,03,23,04,22,3.20
2018,03,23,04,23,3.20
2018,03,23,04,24,3.20
2018,03,23,04,25,3.20
2018,03,23,04,26,3.20
2018,03,23,04,27,3.20
2018,03,23,04,28,3.20
2018,03,23,04,29,3.10
2018,03,23,04,30,3.10
2018,03,23,04,31,3.10
2018,03,23,04,32,3.10
2018,03,23,04,33,3.10
2018,03,23,04,34,3.10
2018,03,23,04,35,3.10
2018,03,23,04,36,3.10
2018,03,23,04,37,3.10
2018,03,23,04,38,3.10
2018,03,23,04,39,3.00
2018,03,23,04,40,3.00
2018,03,23,04,41,3.00
2018,03,23,04,42,3.00
2018,03,23,04,43,3.00
2018,03,23,04,44,3.00
2018,03,23,04,45,3.00
2018,03,23,04,46,3.00
2018,03,23,04,47,3.00
2018,03,23,04,48,3.00
2018,03,23,04,49,2.90
2018,03,23,04,50,2.90
2018,03,23,04,51,2.90
2018,03,23,04,52,2.90
2018,03,23,04,53,2.90
2018,03,23,04,54,2.90
2018,03,23,04,55,2.90
2018,03,23,04,56,2.90
2018,03,23,04,57,2.90
2018,03,23,04,58,2.90
2018,03,23,04,59,2.90
2018,03,23,05,00,2.90
2018,03,23,05,01,2.90
2018,03,23,05,02,2.90
2018,03,23,05,03,2.90
2018,03,23,05,04,2.90
2018,03,23,05,05,2.90
2018,03,23,05,06,2.90
2018,03,23,05,07,2.90
2018,03,23,05,08,2.80
2018,03,23,05,09,2.80
2018,03,23,05,10,2.80
2018,03,23,05,11,2.80
2018,03,23,05,12,2.80
2018,03,23,05,13,2.80
2018,03,23,05,14,2.90
2018,03,23,05,15,2.90
2018,03,23,05,16,2.90
2018,03,23,05,17,2.90
2018,03,23,05,18,2.90
2018,03,23,05,19,2.90
2018,03,23,05,20,2.90
2018,03,23,05,21,2.90
2018,03,23,05,22,2.90
2018,03,23,05,23,2.90
2018,03,23,05,24,2.90
2018,03,23,05,25,2.90
2018,03,23,05,26,2.90
2018,03,23,05,27,2.90
2018,03,23,05,28,2.90
2018,03,23,05,29,2.90
2018,03,23,05,30,2.90
2018,03,23,05,31,2.90
2018,03,23,05,32,2.90
2018,03,23,05,33,2.90
2018,03,23,05,34,2.90
2018,03,23,05,35,2.90
2018,03,23,05,36,2.90
2018,03,23,05,37,2.80
2018,03,23,05,38,2.80
2018,03,23,05,39,2.80
2018,03,23,05,40,2.80
2018,03,23,05,41,2.80
2018,03,23,05,42,2.80
2018,03,23,05,43,2.80
2018,03,23,05,44,2.80
2018,03,23,05,45,2.80
2018,03,23,05,46,2.80
2018,03,23,05,47,2.80
2018,03,23,05,48,2.80
2018,03,23,05,49,2.80
2018,03,23,05,50,2.80
2018,03,23,05,51,2.80
2018,03,23,05,52,2.80
2018,03,23,05,53,2.80
2018,03,23,05,54,2.80
2018,03,23,05,55,2.80
2018,03,23,05,56,2.80
2018,03,23,05,57,2.80
2018,03,23,05,58,2.80
2018,03,23,05,59,2.80
2018,03,23,06,00,2.80
2018,03,23,06,01,2.80
2018,03,23,06,02,2.80
2018,03,23,06,03,2.80
2018,03,23,06,04,2.80
2018,03,23,06,05,2.80
2018,03,23,06,06,2.80
2018,03,23,06,07,2.80
2018,03,23,06,08,2.70
2018,03,23,06,09,2.70
2018,03,23,06,10,2.70
2018,03,23,06,11,2.70
2018,03,23,06,12,2.70
2018,03,23,06,13,2.70
2018,03,23,06,14,2.70
2018,03,23,06,15,2.70
2018,03,23,06,16,2.60
2018,03,23,06,17,2.60
2018,03,23,06,18,2.60
2018,03,23,06,19,2.60
2018,03,23,06,20,2.60
2018,03,23,06,21,2.60
2018,03,23,06,22,2.60
2018,03,23,06,23,2.60
2018,03,23,06,24,2.60
2018,03,23,06,25,2.60
2018,03,23,06,26,2.60
2018,03,23,06,27,2.60
2018,03,23,06,28,2.60
2018,03,23,06,29,2.60
2018,03,23,06,30,2.60
2018,03,23,06,31,2.60
2018,03,23,06,32,2.60
2018,03,23,06,33,2.60
2018,03,23,06,34,2.60
2018,03,23,06,35,2.60
2018,03,23,06,36,2.60
2018,03,23,06,37,2.60
2018,03,23,06,38,2.60
2018,03,23,06,39,2.60
2018,03,23,06,40,2.60
2018,03,23,06,41,2.70
2018,03,23,06,42,2.70
2018,03,23,06,43,2.70
2018,03,23,06,44,2.70
2018,03,23,06,45,2.70
2018,03,23,06,46,2.80
2018,03,23,06,47,2.80
2018,03,23,06,48,2.80
2018,03,23,06,49,2.80
2018,03,23,06,50,2.80
2018,03,23,06,51,2.80
2018,03,23,06,52,2.80
2018,03,23,06,53,2.70
2018,03,23,06,54,2.80
2018,03,23,06,55,2.80
2018,03,23,06,56,2.80
2018,03,23,06,57,2.80
2018,03,23,06,58,2.80
2018,03,23,06,59,2.80
2018,03,23,07,00,2.80
2018,03,23,07,01,2.80
2018,03,23,07,02,2.80
2018,03,23,07,03,2.80
2018,03,23,07,04,2.80
2018,03,23,07,05,2.80
2018,03,23,07,06,2.80
2018,03,23,07,07,2.80
2018,03,23,07,08,2.80
2018,03,23,07,09,2.80
2018,03,23,07,10,2.90
2018,03,23,07,11,2.90
2018,03,23,07,12,2.90
2018,03,23,07,13,2.90
2018,03,23,07,14,3.00
2018,03,23,07,15,3.00
2018,03,23,07,16,3.10
2018,03,23,07,17,3.10
2018,03,23,07,18,3.10
2018,03,23,07,19,3.10
2018,03,23,07,20,3.10
2018,03,23,07,21,3.10
2018,03,23,07,22,3.10
2018,03,23,07,23,3.10
2018,03,23,07,24,3.10
2018,03,23,07,25,3.10
2018,03,23,07,26,3.10
2018,03,23,07,27,3.10
2018,03,23,07,28,3.10
2018,03,23,07,29,3.20
2018,03,23,07,30,3.20
2018,03,23,07,31,3.20
2018,03,23,07,32,3.20
2018,03,23,07,33,3.20
2018,03,23,07,34,3.20
2018,03,23,07,35,3.20
2018,03,23,07,36,3.10
2018,03,23,07,37,3.10
2018,03,23,07,38,3.10
2018,03,23,07,39,3.00
2018,03,23,07,40,3.00
2018,03,23,07,41,2.90
2018,03,23,07,42,2.90
2018,03,23,07,43,2.90
2018,03,23,07,44,2.90
2018,03,23,07,45,2.80
2018,03,23,07,46,2.80
2018,03,23,07,47,2.80
2018,03,23,07,48,2.80
2018,03,23,07,49,2.80
2018,03,23,07,50,2.80
2018,03,23,07,51,2.80
2018,03,23,07,52,2.90
2018,03,23,07,53,2.90
2018,03,23,07,54,3.00
2018,03,23,07,55,3.00
2018,03,23,07,56,3.10
2018,03,23,07,57,3.10
2018,03,23,07,58,3.10
2018,03,23,07,59,3.20
2018,03,23,08,00,3.20
2018,03,23,08,01,3.20
2018,03,23,08,02,3.20
2018,03,23,08,03,3.20
2018,03,23,08,04,3.20
2018,03,23,08,05,3.20
2018,03,23,08,06,3.20
2018,03,23,08,07,3.20
2018,03,23,08,08,3.20
2018,03,23,08,09,3.20
2018,03,23,08,10,3.20
2018,03,23,08,11,3.30
2018,03,23,08,12,3.30
2018,03,23,08,13,3.30
2018,03,23,08,14,3.30
2018,03,23,08,15,3.30
2018,03,23,08,16,3.30
2018,03,23,08,17,3.30
2018,03,23,08,18,3.30
2018,03,23,08,19,3.30
2018,03,23,08,20,3.20
2018,03,23,08,21,3.20
2018,03,23,08,22,3.20
2018,03,23,08,23,3.30
2018,03,23,08,24,3.30
2018,03,23,08,25,3.30
2018,03,23,08,26,3.40
2018,03,23,08,27,3.50
2018,03,23,08,28,3.50
2018,03,23,08,29,3.60
2018,03,23,08,30,3.60
2018,03,23,08,31,3.70
2018,03,23,08,32,3.70
2018,03,23,08,33,3.70
2018,03,23,08,34,3.70
2018,03,23,08,35,3.80
2018,03,23,08,36,3.80
2018,03,23,08,37,3.90
2018,03,23,08,38,3.90
2018,03,23,08,39,4.00
2018,03,23,08,40,4.10
2018,03,23,08,41,4.20
2018,03,23,08,42,4.20
2018,03,23,08,43,4.30
2018,03,23,08,44,4.40
2018,03,23,08,45,4.50
2018,03,23,08,46,4.50
2018,03,23,08,47,4.60
2018,03,23,08,48,4.70
2018,03,23,08,49,4.70
2018,03,23,08,50,4.80
2018,03,23,08,51,4.90
2018,03,23,08,52,5.00
2018,03,23,08,53,5.10
2018,03,23,08,54,5.20
2018,03,23,08,55,5.20
2018,03,23,08,56,5.30
2018,03,23,08,57,5.40
2018,03,23,08,58,5.50
2018,03,23,08,59,5.60
2018,03,23,09,00,5.60
2018,03,23,09,01,5.70
2018,03,23,09,02,5.70
2018,03,23,09,03,5.80
2018,03,23,09,04,5.80
2018,03,23,09,05,5.90
2018,03,23,09,06,5.90
2018,03,23,09,07,5.90
2018,03,23,09,08,5.90
2018,03,23,09,09,6.00
2018,03,23,09,10,6.00
2018,03,23,09,11,6.00
2018,03,23,09,12,6.00
2018,03,23,09,13,6.00
2018,03,23,09,14,6.00
2018,03,23,09,15,6.10
2018,03,23,09,16,6.10
2018,03,23,09,17,6.10
2018,03,23,09,18,6.10
2018,03,23,09,19,6.10
2018,03,23,09,20,6.10
2018,03,23,09,21,6.10
2018,03,23,09,22,6.10
2018,03,23,09,23,6.10
2018,03,23,09,24,6.00
2018,03,23,09,25,6.00
2018,03,23,09,26,5.90
2018,03,23,09,27,5.80
2018,03,23,09,28,5.80
2018,03,23,09,29,5.80
2018,03,23,09,30,5.70
2018,03,23,09,31,5.70
2018,03,23,09,32,5.70
2018,03,23,09,33,5.70
2018,03,23,09,34,5.70
2018,03,23,09,35,5.60
2018,03,23,09,36,5.60
2018,03,23,09,37,5.60
2018,03,23,09,38,5.60
2018,03,23,09,39,5.60
2018,03,23,09,40,5.60
2018,03,23,09,41,5.60
2018,03,23,09,42,5.60
2018,03,23,09,43,5.70
2018,03,23,09,44,5.70
2018,03,23,09,45,5.70
2018,03,23,09,46,5.70
2018,03,23,09,47,5.70
2018,03,23,09,48,5.80
2018,03,23,09,49,5.80
2018,03,23,09,50,5.80
2018,03,23,09,51,5.90
2018,03,23,09,52,5.90
2018,03,23,09,53,5.90
2018,03,23,09,54,5.90
2018,03,23,09,55,5.90
2018,03,23,09,56,5.90
2018,03,23,09,57,5.90
2018,03,23,09,58,5.90
2018,03,23,09,59,5.90
2018,03,23,10,00,5.90
2018,03,23,10,01,5.90
2018,03,23,10,02,5.90
2018,03,23,10,03,5.90
2018,03,23,10,04,5.90
2018,03,23,10,05,5.80
2018,03,23,10,06,5.80
2018,03,23,10,07,5.80
2018,03,23,10,08,5.80
2018,03,23,10,09,5.80
2018,03,23,10,10,5.90
2018,03,23,10,11,5.90
2018,03,23,10,12,5.90
2018,03,23,10,13,5.80
2018,03,23,10,14,5.80
2018,03,23,10,15,5.80
2018,03,23,10,16,5.80
2018,03,23,10,17,5.80
2018,03,23,10,18,5.80
2018,03,23,10,19,5.80
2018,03,23,10,20,5.80
2018,03,23,10,21,5.90
2018,03,23,10,22,5.90
2018,03,23,10,23,5.90
2018,03,23,10,24,5.90
2018,03,23,10,25,5.90
2018,03,23,10,26,5.90
2018,03,23,10,27,5.90
2018,03,23,10,28,5.90
2018,03,23,10,29,5.90
2018,03,23,10,30,5.90
2018,03,23,10,31,5.90
2018,03,23,10,32,5.90
2018,03,23,10,33,5.90
2018,03,23,10,34,5.90
2018,03,23,10,35,5.90
2018,03,23,10,36,5.90
2018,03,23,10,37,5.90
2018,03,23,10,38,6.00
2018,03,23,10,39,6.00
2018,03,23,10,40,6.00
2018,03,23,10,41,6.00
2018,03,23,10,42,6.00
2018,03,23,10,43,6.10
2018,03,23,10,44,6.10
2018,03,23,10,45,6.10
2018,03,23,10,46,6.10
2018,03,23,10,47,6.10
2018,03,23,10,48,6.10
2018,03,23,10,49,6.10
2018,03,23,10,50,6.20
2018,03,23,10,51,6.20
2018,03,23,10,52,6.30
2018,03,23,10,53,6.30
2018,03,23,10,54,6.40
2018,03,23,10,55,6.50
2018,03,23,10,56,6.50
2018,03,23,10,57,6.60
2018,03,23,10,58,6.70
2018,03,23,10,59,6.70
2018,03,23,11,00,6.70
2018,03,23,11,01,6.80
2018,03,23,11,02,6.90
2018,03,23,11,03,6.90
2018,03,23,11,04,6.90
2018,03,23,11,05,7.00
2018,03,23,11,06,7.10
2018,03,23,11,07,7.10
2018,03,23,11,08,7.20
2018,03,23,11,09,7.20
2018,03,23,11,10,7.20
2018,03,23,11,11,7.20
2018,03,23,11,12,7.30
2018,03,23,11,13,7.50
2018,03,23,11,14,7.50
2018,03,23,11,15,7.60
2018,03,23,11,16,7.70
2018,03,23,11,17,7.80
2018,03,23,11,18,8.00
2018,03,23,11,19,8.20
2018,03,23,11,20,8.30
2018,03,23,11,21,8.30
2018,03,23,11,22,8.40
2018,03,23,11,23,8.50
2018,03,23,11,24,8.60
2018,03,23,11,25,8.60
2018,03,23,11,26,8.60
2018,03,23,11,27,8.60
2018,03,23,11,28,8.70
2018,03,23,11,29,8.70
2018,03,23,11,30,8.70
2018,03,23,11,31,8.70
2018,03,23,11,32,8.70
2018,03,23,11,33,8.70
2018,03,23,11,34,8.70
2018,03,23,11,35,8.80
2018,03,23,11,36,8.80
2018,03,23,11,37,8.90
2018,03,23,11,38,9.00
2018,03,23,11,39,9.10
2018,03,23,11,40,9.20
2018,03,23,11,41,9.30
2018,03,23,11,42,9.30
2018,03,23,11,43,9.20
2018,03,23,11,44,9.10
2018,03,23,11,45,9.00
2018,03,23,11,46,9.00
2018,03,23,11,47,8.90
2018,03,23,11,48,8.90
2018,03,23,11,49,9.00
2018,03,23,11,50,9.10
2018,03,23,11,51,9.20
2018,03,23,11,52,9.30
2018,03,23,11,53,9.40
2018,03,23,11,54,9.50
2018,03,23,11,55,9.60
2018,03,23,11,56,9.60
2018,03,23,11,57,9.60
2018,03,23,11,58,9.50
2018,03,23,11,59,9.50
2018,03,23,12,00,9.30
2018,03,23,12,01,9.20
2018,03,23,12,02,9.00
2018,03,23,12,03,8.90
2018,03,23,12,04,8.80
2018,03,23,12,05,8.80
2018,03,23,12,06,8.80
2018,03,23,12,07,8.80
2018,03,23,12,08,8.80
2018,03,23,12,09,8.80
2018,03,23,12,10,8.90
2018,03,23,12,11,8.90
2018,03,23,12,12,8.90
2018,03,23,12,13,8.90
2018,03,23,12,14,8.80
2018,03,23,12,15,8.80
2018,03,23,12,16,8.90
2018,03,23,12,17,8.90
2018,03,23,12,18,8.90
2018,03,23,12,19,9.00
2018,03,23,12,20,9.00
2018,03,23,12,21,9.00
2018,03,23,12,22,9.00
2018,03,23,12,23,9.00
2018,03,23,12,24,9.00
2018,03,23,12,25,9.00
2018,03,23,12,26,8.90
2018,03,23,12,27,8.80
2018,03,23,12,28,8.80
2018,03,23,12,29,8.70
2018,03,23,12,30,8.70
2018,03,23,12,31,8.70
2018,03,23,12,32,8.70
2018,03,23,12,33,8.70
2018,03,23,12,34,8.70
2018,03,23,12,35,8.60
2018,03,23,12,36,8.60
2018,03,23,12,37,8.60
2018,03,23,12,38,8.50
2018,03,23,12,39,8.50
2018,03,23,12,40,8.40
2018,03,23,12,41,8.40
2018,03,23,12,42,8.40
2018,03,23,12,43,8.40
2018,03,23,12,44,8.40
2018,03,23,12,45,8.40
2018,03,23,12,46,8.30
2018,03,23,12,47,8.30
2018,03,23,12,48,8.40
2018,03,23,12,49,8.40
2018,03,23,12,50,8.50
2018,03,23,12,51,8.50
2018,03,23,12,52,8.50
2018,03,23,12,53,8.50
2018,03,23,12,54,8.50
2018,03,23,12,55,8.50
2018,03,23,12,56,8.50
2018,03,23,12,57,8.50
2018,03,23,12,58,8.50
2018,03,23,12,59,8.40
2018,03,23,13,00,8.40
2018,03,23,13,01,8.40
2018,03,23,13,02,8.40
2018,03,23,13,03,8.40
2018,03,23,13,04,8.50
2018,03,23,13,05,8.50
2018,03,23,13,06,8.60
2018,03,23,13,07,8.70
2018,03,23,13,08,8.70
2018,03,23,13,09,8.80
2018,03,23,13,10,8.90
2018,03,23,13,11,8.90
2018,03,23,13,12,8.90
2018,03,23,13,13,8.90
2018,03,23,13,14,8.90
2018,03,23,13,15,8.90
2018,03,23,13,16,8.90
2018,03,23,13,17,8.90
2018,03,23,13,18,8.90
2018,03,23,13,19,8.90
2018,03,23,13,20,8.90
2018,03,23,13,21,8.90
2018,03,23,13,22,8.90
2018,03,23,13,23,9.00
2018,03,23,13,24,9.00
2018,03,23,13,25,9.00
2018,03,23,13,26,9.00
2018,03,23,13,27,8.90
2018,03,23,13,28,8.90
2018,03,23,13,29,8.90
2018,03,23,13,30,8.80
2018,03,23,13,31,8.80
2018,03,23,13,32,8.80
2018,03,23,13,33,8.80
2018,03,23,13,34,8.70
2018,03,23,13,35,8.70
2018,03,23,13,36,8.70
2018,03,23,13,37,8.70
2018,03,23,13,38,8.70
2018,03,23,13,39,8.80
2018,03,23,13,40,8.70
2018,03,23,13,41,8.70
2018,03,23,13,42,8.80
2018,03,23,13,43,8.80
2018,03,23,13,44,8.90
2018,03,23,13,45,8.90
2018,03,23,13,46,8.90
2018,03,23,13,47,8.80
2018,03,23,13,48,8.80
2018,03,23,13,49,8.80
2018,03,23,13,50,8.80
2018,03,23,13,51,8.80
2018,03,23,13,52,8.80
2018,03,23,13,53,8.80
2018,03,23,13,54,8.80
2018,03,23,13,55,8.80
2018,03,23,13,56,8.90
2018,03,23,13,57,8.90
2018,03,23,13,58,8.90
2018,03,23,13,59,8.90
2018,03,23,14,00,8.90
2018,03,23,14,01,8.90
2018,03,23,14,02,8.90
2018,03,23,14,03,8.80
2018,03,23,14,04,8.80
2018,03,23,14,05,8.80
2018,03,23,14,06,8.70
2018,03,23,14,07,8.70
2018,03,23,14,08,8.70
2018,03,23,14,09,8.70
2018,03,23,14,10,8.70
2018,03,23,14,11,8.70
2018,03,23,14,12,8.70
2018,03,23,14,13,8.70
2018,03,23,14,14,8.70
2018,03,23,14,15,8.70
2018,03,23,14,16,8.80
2018,03,23,14,17,8.80
2018,03,23,14,18,8.80
2018,03,23,14,19,8.90
2018,03,23,14,20,9.00
2018,03,23,14,21,9.10
2018,03,23,14,22,9.10
2018,03,23,14,23,9.10
2018,03,23,14,24,9.10
2018,03,23,14,25,9.00
2018,03,23,14,26,8.90
2018,03,23,14,27,8.80
2018,03,23,14,28,8.80
2018,03,23,14,29,8.80
2018,03,23,14,30,8.90
2018,03,23,14,31,8.90
2018,03,23,14,32,8.90
2018,03,23,14,33,8.90
2018,03,23,14,34,8.90
2018,03,23,14,35,8.90
2018,03,23,14,36,8.90
2018,03,23,14,37,8.90
2018,03,23,14,38,8.90
2018,03,23,14,39,8.90
2018,03,23,14,40,8.90
2018,03,23,14,41,8.90
2018,03,23,14,42,8.90
2018,03,23,14,43,8.90
2018,03,23,14,44,8.90
2018,03,23,14,45,8.80
2018,03,23,14,46,8.80
2018,03,23,14,47,8.80
2018,03,23,14,48,8.80
2018,03,23,14,49,8.80
2018,03,23,14,50,8.80
2018,03,23,14,51,8.80
2018,03,23,14,52,8.70
2018,03,23,14,53,8.70
2018,03,23,14,54,8.70
2018,03,23,14,55,8.80
2018,03,23,14,56,8.80
2018,03,23,14,57,8.80
2018,03,23,14,58,8.70
2018,03,23,14,59,8.70
2018,03,23,15,00,8.60
2018,03,23,15,01,8.60
2018,03,23,15,02,8.60
2018,03,23,15,03,8.60
2018,03,23,15,04,8.60
2018,03,23,15,05,8.60
2018,03,23,15,06,8.60
2018,03,23,15,07,8.50
2018,03,23,15,08,8.50
2018,03,23,15,09,8.40
2018,03,23,15,10,8.40
2018,03,23,15,11,8.40
2018,03,23,15,12,8.40
2018,03,23,15,13,8.40
2018,03,23,15,14,8.40
2018,03,23,15,15,8.30
2018,03,23,15,16,8.10
2018,03,23,15,17,7.90
2018,03,23,15,18,7.70
2018,03,23,15,19,7.60
2018,03,23,15,20,7.50
2018,03,23,15,21,7.40
2018,03,23,15,22,7.30
2018,03,23,15,23,7.30
2018,03,23,15,24,7.30
2018,03,23,15,25,7.30
2018,03,23,15,26,7.30
2018,03,23,15,27,7.20
2018,03,23,15,28,7.20
2018,03,23,15,29,7.20
2018,03,23,15,30,7.20
2018,03,23,15,31,7.10
2018,03,23,15,32,7.10
2018,03,23,15,33,7.10
2018,03,23,15,34,7.10
2018,03,23,15,35,7.10
2018,03,23,15,36,7.10
2018,03,23,15,37,7.00
2018,03,23,15,38,7.00
2018,03,23,15,39,6.90
2018,03,23,15,40,6.80
2018,03,23,15,41,6.70
2018,03,23,15,42,6.70
2018,03,23,15,43,6.70
2018,03,23,15,44,6.70
2018,03,23,15,45,6.70
2018,03,23,15,46,6.70
2018,03,23,15,47,6.60
2018,03,23,15,48,6.60
2018,03,23,15,49,6.60
2018,03,23,15,50,6.60
2018,03,23,15,51,6.60
2018,03,23,15,52,6.60
2018,03,23,15,53,6.60
2018,03,23,15,54,6.60
2018,03,23,15,55,6.60
2018,03,23,15,56,6.60
2018,03,23,15,57,6.60
2018,03,23,15,58,6.60
2018,03,23,15,59,6.60
2018,03,23,16,00,6.60
2018,03,23,16,01,6.60
2018,03,23,16,02,6.60
2018,03,23,16,03,6.60
2018,03,23,16,04,6.60
2018,03,23,16,05,6.60
2018,03,23,16,06,6.60
2018,03,23,16,07,6.60
2018,03,23,16,08,6.60
2018,03,23,16,09,6.60
2018,03,23,16,10,6.60
2018,03,23,16,11,6.60
2018,03,23,16,12,6.50
2018,03,23,16,13,6.50
2018,03,23,16,14,6.50
2018,03,23,16,15,6.50
2018,03,23,16,16,6.50
2018,03,23,16,17,6.50
2018,03,23,16,18,6.50
2018,03,23,16,19,6.50
2018,03,23,16,20,6.50
2018,03,23,16,21,6.60
2018,03,23,16,22,6.60
2018,03,23,16,23,6.60
2018,03,23,16,24,6.60
2018,03,23,16,25,6.60
2018,03,23,16,26,6.60
2018,03,23,16,27,6.70
2018,03,23,16,28,6.70
2018,03,23,16,29,6.70
2018,03,23,16,30,6.70
2018,03,23,16,31,6.70
2018,03,23,16,32,6.80
2018,03,23,16,33,6.80
2018,03,23,16,34,6.80
2018,03,23,16,35,6.80
2018,03,23,16,36,6.90
2018,03,23,16,37,6.90
2018,03,23,16,38,6.90
2018,03,23,16,39,6.90
2018,03,23,16,40,7.00
2018,03,23,16,41,7.00
2018,03,23,16,42,7.00
2018,03,23,16,43,7.10
2018,03,23,16,44,7.10
2018,03,23,16,45,7.10
2018,03,23,16,46,7.20
2018,03,23,16,47,7.20
2018,03,23,16,48,7.20
2018,03,23,16,49,7.10
2018,03,23,16,50,7.10
2018,03,23,16,51,7.10
2018,03,23,16,52,7.00
2018,03,23,16,53,6.90
2018,03,23,16,54,6.90
2018,03,23,16,55,6.90
2018,03,23,16,56,6.90
2018,03,23,16,57,6.90
2018,03,23,16,58,6.90
2018,03,23,16,59,6.90
2018,03,23,17,00,6.90
2018,03,23,17,01,6.80
2018,03,23,17,02,6.80
2018,03,23,17,03,6.80
2018,03,23,17,04,6.90
2018,03,23,17,05,6.90
2018,03,23,17,06,6.90
2018,03,23,17,07,6.90
2018,03,23,17,08,6.90
2018,03,23,17,09,6.90
2018,03,23,17,10,6.90
2018,03,23,17,11,6.90
2018,03,23,17,12,6.90
2018,03,23,17,13,6.90
2018,03,23,17,14,6.90
2018,03,23,17,15,6.90
2018,03,23,17,16,6.90
2018,03,23,17,17,6.90
2018,03,23,17,18,6.90
2018,03,23,17,19,6.90
2018,03,23,17,20,6.80
2018,03,23,17,21,6.80
2018,03,23,17,22,6.80
2018,03,23,17,23,6.80
2018,03,23,17,24,6.80
2018,03,23,17,25,6.80
2018,03,23,17,26,6.90
2018,03,23,17,27,6.90
2018,03,23,17,28,6.90
2018,03,23,17,29,6.90
2018,03,23,17,30,6.90
2018,03,23,17,31,6.90
2018,03,23,17,32,6.90
2018,03,23,17,33,6.90
2018,03,23,17,34,7.00
2018,03,23,17,35,7.00
2018,03,23,17,36,7.00
2018,03,23,17,37,7.00
2018,03,23,17,38,7.00
2018,03,23,17,39,7.00
2018,03,23,17,40,7.00
2018,03,23,17,41,7.00
2018,03,23,17,42,7.00
2018,03,23,17,43,7.00
2018,03,23,17,44,7.00
2018,03,23,17,45,7.00
2018,03,23,17,46,7.00
2018,03,23,17,47,6.90
2018,03,23,17,48,6.90
2018,03,23,17,49,6.90
2018,03,23,17,50,6.80
2018,03,23,17,51,6.80
2018,03,23,17,52,6.70
2018,03,23,17,53,6.70
2018,03,23,17,54,6.70
2018,03,23,17,55,6.70
2018,03,23,17,56,6.70
2018,03,23,17,57,6.60
2018,03,23,17,58,6.60
2018,03,23,17,59,6.60
2018,03,23,18,00,6.60
2018,03,23,18,01,6.60
2018,03,23,18,02,6.60
2018,03,23,18,03,6.60
2018,03,23,18,04,6.60
2018,03,23,18,05,6.60
2018,03,23,18,06,6.60